Regional Weather Roundup
Issued by NWS

Home | Current Version | Previous Version | Graphics & Text | Print | Product List | Glossary On
Versions: 1 2 3 4 5 6 7 8 9 10 11 12 13 14 15 16 17 18 19 20 21 22 23 24 25 26 27 28 29 30 31 32 33 34 35 36 37 38 39 40 41 42 43 44 45 46 47 48 49 50
000
ASUS44 KMEG 020010
RWRTN
TENNESSEE HOURLY STATE WEATHER ROUNDUP
NATIONAL WEATHER SERVICE MEMPHIS TN
700 PM CDT WED JUL 01 2015

TNZ002-004-019-021-049-052-054-088>092-020100-
WEST TENNESSEE

CITY           SKY/WX    TMP DP  RH WIND       PRES   REMARKS
MEMPHIS INTL   PTSUNNY   86  74  67 SW12      29.93S HX  94
NWS MEMPHIS      N/A     86 N/A N/A MISG        N/A
JACKSON        MOSUNNY   83  73  72 S6        29.94R
DYERSBURG        N/A    N/A N/A N/A MISG        N/A
PARIS          MOSUNNY   75  70  83 S3        29.95S
LEXINGTON      SUNNY     77  70  78 CALM      29.96R
$$

TNZ008-025-027-028-033-062-065-066-020100-
NORTH MIDDLE TENNESSEE

CITY           SKY/WX    TMP DP  RH WIND       PRES   REMARKS
NASHVILLE      CLOUDY    71  69  93 SW7       29.98R
CLARKSVILLE    PTSUNNY   76  68  76 SW6       29.95R
SMYRNA         CLOUDY    71  68  90 CALM      29.99R
COOKEVILLE     MOSUNNY   72  68  88 SW7       29.98R
CROSSVILLE     CLOUDY    68  64  87 S6        30.01F
$$

TNZ061-075-076-078-094-096-097-020100-
SOUTH MIDDLE TENNESSEE

CITY           SKY/WX    TMP DP  RH WIND       PRES   REMARKS
FAYETTEVILLE   MOSUNNY   68  66  94 S6        30.00R
TULLAHOMA      SUNNY     68  66  94 CALM      30.02R
WINCHESTER     SUNNY     68  66  94 SE3       30.00F
MCMINNVILLE    PTSUNNY   70  70 100 SW5       30.00S
COLUMBIA       MOSUNNY   72  72 100 S5        29.97R
SHELBYVILLE    MOSUNNY   70  70 100 S5        30.00S
$$

TNZ017-018-042-046-047-020100-
NORTHEAST TENNESSEE

CITY           SKY/WX    TMP DP  RH WIND       PRES   REMARKS
TRI CITIES     CLOUDY    69  67  93 S5        30.01S
ELIZABETHTON   MOCLDY    66  64  94 CALM      30.03S
$$

TNZ012-013-036-069-073-074-020100-
CENTRAL EAST TENNESSEE

CITY           SKY/WX    TMP DP  RH WIND       PRES   REMARKS
KNOXVILLE      CLOUDY    71  66  84 SW12      29.98F
OAK RIDGE      CLOUDY    73  67  81 S6        29.98F
GATLINBURG     CLOUDY    72  66  83 S7        29.98F
MORRISTOWN     CLEAR     70  70 100 SW7       30.00F
$$

TNZ083-085-099-020100-
SOUTHEAST TENNESSEE

CITY           SKY/WX    TMP DP  RH WIND       PRES   REMARKS
CHATTANOOGA    CLOUDY    69  67  93 S9        30.02R
$$

SKY/WX REPORTED AS FAIR MEANS FEW OR NO CLOUDS BELOW
12 THOUSAND FEET.



USA.gov is the U.S. government's official web portal to all federal, state and local government web resources and services.